Time,TemperatureF,DewpointF,PressureIn,WindDirection,WindDirectionDegrees,WindSpeedMPH,WindSpeedGustMPH,Humidity,HourlyPrecipIn,Conditions,Clouds,dailyrainin,SoftwareType,DateUTC
2013-05-13 00:01:00,47.4,44.0,30.18,NNW,327,0.0,0.0,88,0.00,CLR,,0.00,WeatherDisplay:10.37,2013-05-13 05:01:00,
2013-05-13 00:06:00,47.4,44.0,30.18,NW,326,0.0,0.0,88,0.00,CLR,,0.00,WeatherDisplay:10.37,2013-05-13 05:06:00,
2013-05-13 00:11:00,47.3,43.9,30.18,NNW,327,0.0,0.0,88,0.00,CLR,,0.00,WeatherDisplay:10.37,2013-05-13 05:11:00,
2013-05-13 00:16:00,47.2,43.8,30.18,NNW,327,0.0,0.0,88,0.00,CLR,,0.00,WeatherDisplay:10.37,2013-05-13 05:16:00,
2013-05-13 00:21:00,47.2,44.1,30.18,NW,326,0.0,0.0,89,0.00,CLR,,0.00,WeatherDisplay:10.37,2013-05-13 05:21:00,
2013-05-13 00:26:00,47.1,44.0,30.18,NW,326,0.0,0.0,89,0.00,CLR,,0.00,WeatherDisplay:10.37,2013-05-13 05:26:00,
2013-05-13 00:31:00,47.0,43.9,30.18,NNW,327,0.0,0.0,89,0.00,CLR,,0.00,WeatherDisplay:10.37,2013-05-13 05:31:00,
2013-05-13 00:36:00,47.0,43.9,30.18,NNW,327,0.0,0.0,89,0.00,CLR,,0.00,WeatherDisplay:10.37,2013-05-13 05:36:00,
2013-05-13 00:41:00,47.0,43.9,30.18,NW,326,0.0,0.0,89,0.00,CLR,,0.00,WeatherDisplay:10.37,2013-05-13 05:41:00,
2013-05-13 00:46:00,46.9,43.8,30.18,NNW,327,0.0,0.0,89,0.00,CLR,,0.00,WeatherDisplay:10.37,2013-05-13 05:46:00,
2013-05-13 00:51:00,46.8,44.0,30.18,NNW,327,0.0,0.0,90,0.00,CLR,,0.00,WeatherDisplay:10.37,2013-05-13 05:51:00,
2013-05-13 00:56:00,46.7,43.9,30.18,NW,326,0.0,0.0,90,0.00,CLR,,0.00,WeatherDisplay:10.37,2013-05-13 05:56:00,
2013-05-13 01:01:00,46.7,43.9,30.18,NNW,327,0.0,0.0,90,0.00,CLR,,0.00,WeatherDisplay:10.37,2013-05-13 06:01:00,
2013-05-13 01:06:00,46.6,43.8,30.18,NNW,327,0.0,0.0,90,0.00,CLR,,0.00,WeatherDisplay:10.37,2013-05-13 06:06:00,
2013-05-13 01:11:00,46.5,43.7,30.18,NW,326,0.0,0.0,90,0.00,CLR,,0.00,WeatherDisplay:10.37,2013-05-13 06:11:00,
2013-05-13 01:16:00,46.5,43.7,30.17,NW,326,0.0,0.0,90,0.00,CLR,,0.00,WeatherDisplay:10.37,2013-05-13 06:16:00,
2013-05-13 01:21:00,46.5,43.7,30.17,NNW,327,0.0,0.0,90,0.00,CLR,,0.00,WeatherDisplay:10.37,2013-05-13 06:21:00,
2013-05-13 01:26:00,46.4,43.6,30.17,NNW,327,0.0,0.0,90,0.00,CLR,,0.00,WeatherDisplay:10.37,2013-05-13 06:26:00,
2013-05-13 01:31:00,46.4,43.6,30.18,NW,326,0.0,0.0,90,0.00,CLR,,0.00,WeatherDisplay:10.37,2013-05-13 06:31:00,
2013-05-13 01:36:00,46.5,44.0,30.17,NNW,327,0.0,0.0,91,0.00,CLR,,0.00,WeatherDisplay:10.37,2013-05-13 06:36:00,
2013-05-13 01:41:00,46.5,44.0,30.17,NNW,327,0.0,0.0,91,0.00,CLR,,0.00,WeatherDisplay:10.37,2013-05-13 06:41:00,
2013-05-13 01:46:00,46.5,44.0,30.17,NNW,327,0.0,0.0,91,0.00,CLR,,0.00,WeatherDisplay:10.37,2013-05-13 06:46:00,
2013-05-13 01:51:00,46.4,43.9,30.17,NNW,327,0.0,0.0,91,0.00,CLR,,0.00,WeatherDisplay:10.37,2013-05-13 06:51:00,
2013-05-13 01:56:00,46.4,43.9,30.17,NNW,327,0.0,0.0,91,0.00,CLR,,0.00,WeatherDisplay:10.37,2013-05-13 06:56:00,
2013-05-13 02:01:00,46.2,43.7,30.17,NNW,327,0.0,0.0,91,0.00,CLR,,0.00,WeatherDisplay:10.37,2013-05-13 07:01:00,
2013-05-13 02:06:00,46.1,43.6,30.17,NW,326,0.0,0.0,91,0.00,CLR,,0.00,WeatherDisplay:10.37,2013-05-13 07:06:00,
2013-05-13 02:11:00,46.0,43.5,30.17,NNW,327,0.0,0.0,91,0.00,CLR,,0.00,WeatherDisplay:10.37,2013-05-13 07:11:00,
2013-05-13 02:16:00,45.9,43.4,30.17,NW,326,0.0,0.0,91,0.00,CLR,,0.00,WeatherDisplay:10.37,2013-05-13 07:16:00,
2013-05-13 02:21:00,45.8,43.3,30.17,NNW,327,0.0,0.0,91,0.00,CLR,,0.00,WeatherDisplay:10.37,2013-05-13 07:21:00,
2013-05-13 02:26:00,45.6,43.1,30.17,NNW,327,0.0,0.0,91,0.00,CLR,,0.00,WeatherDisplay:10.37,2013-05-13 07:26:00,
2013-05-13 02:31:00,45.5,43.0,30.17,NNW,327,0.0,0.0,91,0.00,CLR,,0.00,WeatherDisplay:10.37,2013-05-13 07:31:00,
2013-05-13 02:36:00,45.5,43.0,30.17,NW,326,0.0,0.0,91,0.00,CLR,,0.00,WeatherDisplay:10.37,2013-05-13 07:36:00,
2013-05-13 02:41:00,45.4,42.9,30.17,NNW,327,0.0,0.0,91,0.00,CLR,,0.00,WeatherDisplay:10.37,2013-05-13 07:41:00,
2013-05-13 02:46:00,45.4,42.9,30.17,NW,326,0.0,0.0,91,0.00,CLR,,0.00,WeatherDisplay:10.37,2013-05-13 07:46:00,
2013-05-13 02:51:00,45.3,42.8,30.17,NW,326,0.0,0.0,91,0.00,CLR,,0.00,WeatherDisplay:10.37,2013-05-13 07:51:00,
2013-05-13 02:56:00,45.2,42.7,30.17,NNW,327,0.0,0.0,91,0.00,CLR,,0.00,WeatherDisplay:10.37,2013-05-13 07:56:00,
2013-05-13 03:01:00,45.1,42.6,30.17,NNW,327,0.0,0.0,91,0.00,CLR,,0.00,WeatherDisplay:10.37,2013-05-13 08:01:00,
2013-05-13 03:06:00,45.0,42.5,30.17,NW,326,0.0,0.0,91,0.00,CLR,,0.00,WeatherDisplay:10.37,2013-05-13 08:06:00,
2013-05-13 03:11:00,45.0,42.8,30.17,NNW,327,0.0,0.0,92,0.00,CLR,,0.00,WeatherDisplay:10.37,2013-05-13 08:11:00,
2013-05-13 03:16:00,44.9,42.7,30.17,NNW,327,0.0,0.0,92,0.00,CLR,,0.00,WeatherDisplay:10.37,2013-05-13 08:16:00,
2013-05-13 03:21:00,44.9,42.4,30.17,NW,326,0.0,0.0,91,0.00,CLR,,0.00,WeatherDisplay:10.37,2013-05-13 08:21:00,
2013-05-13 03:26:00,44.9,42.7,30.17,NNW,327,0.0,0.0,92,0.00,CLR,,0.00,WeatherDisplay:10.37,2013-05-13 08:26:00,
2013-05-13 03:31:00,44.9,42.7,30.17,NNW,327,0.0,0.0,92,0.00,CLR,,0.00,WeatherDisplay:10.37,2013-05-13 08:31:00,
2013-05-13 03:36:00,44.7,42.5,30.17,NW,326,0.0,0.0,92,0.00,CLR,,0.00,WeatherDisplay:10.37,2013-05-13 08:36:00,
2013-05-13 03:41:00,44.7,42.5,30.17,NNW,327,0.0,0.0,92,0.00,CLR,,0.00,WeatherDisplay:10.37,2013-05-13 08:41:00,
2013-05-13 03:47:00,44.7,42.5,30.17,NNW,327,0.0,0.0,92,0.00,CLR,,0.00,WeatherDisplay:10.37,2013-05-13 08:47:00,
2013-05-13 03:52:00,44.7,42.5,30.18,NNW,327,0.0,0.0,92,0.00,CLR,,0.00,WeatherDisplay:10.37,2013-05-13 08:52:00,
2013-05-13 03:57:00,44.7,42.5,30.17,NW,326,0.0,0.0,92,0.00,CLR,,0.00,WeatherDisplay:10.37,2013-05-13 08:57:00,
2013-05-13 04:02:00,44.7,42.5,30.18,NW,326,0.0,0.0,92,0.00,CLR,,0.00,WeatherDisplay:10.37,2013-05-13 09:02:00,
2013-05-13 04:07:00,44.6,42.4,30.18,NNW,327,0.0,0.0,92,0.00,CLR,,0.00,WeatherDisplay:10.37,2013-05-13 09:07:00,
2013-05-13 04:12:00,44.6,42.4,30.18,NNW,327,0.0,0.0,92,0.00,CLR,,0.00,WeatherDisplay:10.37,2013-05-13 09:12:00,
2013-05-13 04:17:00,44.5,42.3,30.18,NW,326,0.0,0.0,92,0.00,CLR,,0.00,WeatherDisplay:10.37,2013-05-13 09:17:00,
2013-05-13 04:22:00,44.4,42.2,30.18,NNW,327,0.0,0.0,92,0.00,CLR,,0.00,WeatherDisplay:10.37,2013-05-13 09:22:00,
2013-05-13 04:27:00,44.3,42.1,30.18,NNW,327,0.0,0.0,92,0.00,CLR,,0.00,WeatherDisplay:10.37,2013-05-13 09:27:00,
2013-05-13 04:32:00,44.2,42.0,30.18,NW,326,0.0,0.0,92,0.00,CLR,,0.00,WeatherDisplay:10.37,2013-05-13 09:32:00,
2013-05-13 04:37:00,44.1,41.9,30.18,NNW,327,0.0,0.0,92,0.00,CLR,,0.00,WeatherDisplay:10.37,2013-05-13 09:37:00,
2013-05-13 04:42:00,44.1,41.9,30.18,NW,326,0.0,0.0,92,0.00,CLR,,0.00,WeatherDisplay:10.37,2013-05-13 09:42:00,
2013-05-13 04:47:00,44.0,41.8,30.18,NW,326,0.0,0.0,92,0.00,CLR,,0.00,WeatherDisplay:10.37,2013-05-13 09:47:00,
2013-05-13 04:52:00,44.0,41.8,30.18,NNW,327,0.0,0.0,92,0.00,CLR,,0.00,WeatherDisplay:10.37,2013-05-13 09:52:00,
2013-05-13 04:57:00,43.9,41.7,30.19,NNW,327,0.0,0.0,92,0.00,CLR,,0.00,WeatherDisplay:10.37,2013-05-13 09:57:00,
2013-05-13 05:02:00,43.9,41.7,30.19,NW,326,0.0,0.0,92,0.00,CLR,,0.00,WeatherDisplay:10.37,2013-05-13 10:02:00,
2013-05-13 05:07:00,44.1,42.2,30.19,NNW,327,0.0,0.0,93,0.00,CLR,,0.00,WeatherDisplay:10.37,2013-05-13 10:07:00,
2013-05-13 05:12:00,44.2,42.3,30.19,NW,326,0.0,0.0,93,0.00,CLR,,0.00,WeatherDisplay:10.37,2013-05-13 10:12:00,
2013-05-13 05:17:00,44.3,42.4,30.19,NW,326,0.0,0.0,93,0.00,CLR,,0.00,WeatherDisplay:10.37,2013-05-13 10:17:00,
2013-05-13 05:22:00,44.4,42.5,30.19,NNW,327,0.0,0.0,93,0.00,CLR,,0.00,WeatherDisplay:10.37,2013-05-13 10:22:00,
2013-05-13 05:27:00,44.4,42.5,30.19,NNW,327,0.0,0.0,93,0.00,CLR,,0.00,WeatherDisplay:10.37,2013-05-13 10:27:00,
2013-05-13 05:32:00,44.3,42.4,30.19,NW,326,0.0,0.0,93,0.00,CLR,,0.00,WeatherDisplay:10.37,2013-05-13 10:32:00,
2013-05-13 05:37:00,44.3,42.4,30.19,NW,326,0.0,0.0,93,0.00,CLR,,0.00,WeatherDisplay:10.37,2013-05-13 10:37:00,
2013-05-13 05:42:00,44.2,42.3,30.20,NNW,327,0.0,0.0,93,0.00,CLR,,0.00,WeatherDisplay:10.37,2013-05-13 10:42:00,
2013-05-13 05:47:00,44.1,42.2,30.20,NNW,327,0.0,0.0,93,0.00,CLR,,0.00,WeatherDisplay:10.37,2013-05-13 10:47:00,
2013-05-13 05:52:00,44.0,42.1,30.20,NNW,327,0.0,0.0,93,0.00,CLR,,0.00,WeatherDisplay:10.37,2013-05-13 10:52:00,
2013-05-13 05:57:00,43.9,42.0,30.20,NW,326,0.0,0.0,93,0.00,CLR,,0.00,WeatherDisplay:10.37,2013-05-13 10:57:00,
2013-05-13 06:02:00,43.9,42.0,30.20,NNW,327,0.0,0.0,93,0.00,CLR,,0.00,WeatherDisplay:10.37,2013-05-13 11:02:00,
2013-05-13 06:07:00,43.8,41.9,30.21,NW,326,0.0,0.0,93,0.00,CLR,,0.00,WeatherDisplay:10.37,2013-05-13 11:07:00,
2013-05-13 06:12:00,43.8,41.9,30.21,NNW,327,0.0,0.0,93,0.00,CLR,,0.00,WeatherDisplay:10.37,2013-05-13 11:12:00,
2013-05-13 06:17:00,43.8,41.9,30.21,NNW,327,0.0,0.0,93,0.00,CLR,,0.00,WeatherDisplay:10.37,2013-05-13 11:17:00,
2013-05-13 06:22:00,43.9,42.0,30.21,NW,326,0.0,0.0,93,0.00,CLR,,0.00,WeatherDisplay:10.37,2013-05-13 11:22:00,
2013-05-13 06:27:00,44.0,42.1,30.22,NNW,327,0.0,0.0,93,0.00,CLR,,0.00,WeatherDisplay:10.37,2013-05-13 11:27:00,
2013-05-13 06:32:00,44.2,42.3,30.22,NW,326,0.0,0.0,93,0.00,CLR,,0.00,WeatherDisplay:10.37,2013-05-13 11:32:00,
2013-05-13 06:37:00,44.3,42.4,30.22,NNW,327,0.0,0.0,93,0.00,CLR,,0.00,WeatherDisplay:10.37,2013-05-13 11:37:00,
2013-05-13 06:42:00,44.5,42.6,30.22,NNW,327,0.0,0.0,93,0.00,CLR,,0.00,WeatherDisplay:10.37,2013-05-13 11:42:00,
2013-05-13 06:47:00,44.9,43.3,30.23,NNW,327,0.0,0.0,94,0.00,CLR,,0.00,WeatherDisplay:10.37,2013-05-13 11:47:00,
2013-05-13 06:52:00,45.3,43.7,30.23,NW,326,1.0,0.0,94,0.00,CLR,,0.00,WeatherDisplay:10.37,2013-05-13 11:52:00,
2013-05-13 06:57:00,45.8,44.2,30.23,NNW,327,0.0,0.0,94,0.00,CLR,,0.00,WeatherDisplay:10.37,2013-05-13 11:57:00,
2013-05-13 07:02:00,46.1,44.5,30.23,NNW,327,0.0,0.0,94,0.00,CLR,,0.00,WeatherDisplay:10.37,2013-05-13 12:02:00,
2013-05-13 07:07:00,46.6,45.0,30.23,NE,49,0.0,0.0,94,0.00,CLR,,0.00,WeatherDisplay:10.37,2013-05-13 12:07:00,
2013-05-13 07:12:00,46.9,45.3,30.23,NE,50,0.0,0.0,94,0.00,CLR,,0.00,WeatherDisplay:10.37,2013-05-13 12:12:00,
2013-05-13 07:17:00,47.3,45.7,30.23,NE,50,0.0,0.0,94,0.00,CLR,,0.00,WeatherDisplay:10.37,2013-05-13 12:17:00,
2013-05-13 07:22:00,47.6,46.0,30.23,NE,49,0.0,0.0,94,0.00,CLR,,0.00,WeatherDisplay:10.37,2013-05-13 12:22:00,
2013-05-13 07:27:00,47.8,46.2,30.23,NE,49,0.0,0.0,94,0.00,CLR,,0.00,WeatherDisplay:10.37,2013-05-13 12:27:00,
2013-05-13 07:32:00,48.1,46.2,30.23,NE,50,0.0,0.0,93,0.00,CLR,,0.00,WeatherDisplay:10.37,2013-05-13 12:32:00,
2013-05-13 07:37:00,48.4,46.5,30.23,NE,50,0.0,0.0,93,0.00,CLR,,0.00,WeatherDisplay:10.37,2013-05-13 12:37:00,
2013-05-13 07:42:00,48.7,46.8,30.24,NE,51,1.2,1.2,93,0.00,CLR,,0.00,WeatherDisplay:10.37,2013-05-13 12:42:00,
2013-05-13 07:47:00,49.1,47.2,30.24,East,86,2.3,2.3,93,0.00,CLR,,0.00,WeatherDisplay:10.37,2013-05-13 12:47:00,
2013-05-13 07:52:00,49.4,47.2,30.24,East,86,0.0,0.0,92,0.00,CLR,,0.00,WeatherDisplay:10.37,2013-05-13 12:52:00,
2013-05-13 07:57:00,49.8,47.6,30.24,East,86,0.0,0.0,92,0.00,CLR,,0.00,WeatherDisplay:10.37,2013-05-13 12:57:00,
2013-05-13 08:02:00,50.0,47.8,30.24,East,86,0.0,0.0,92,0.00,CLR,,0.00,WeatherDisplay:10.37,2013-05-13 13:02:00,
2013-05-13 08:07:00,50.4,48.2,30.24,East,86,0.0,0.0,92,0.00,CLR,,0.00,WeatherDisplay:10.37,2013-05-13 13:07:00,
2013-05-13 08:12:00,51.2,48.7,30.24,East,86,0.0,0.0,91,0.00,CLR,,0.00,WeatherDisplay:10.37,2013-05-13 13:12:00,
2013-05-13 08:17:00,51.9,48.8,30.24,East,88,1.2,0.0,89,0.00,CLR,,0.00,WeatherDisplay:10.37,2013-05-13 13:17:00,
2013-05-13 08:22:00,52.3,49.2,30.25,East,88,0.0,0.0,89,0.00,CLR,,0.00,WeatherDisplay:10.37,2013-05-13 13:22:00,
2013-05-13 08:27:00,52.6,49.1,30.25,East,88,0.0,0.0,88,0.00,CLR,,0.00,WeatherDisplay:10.37,2013-05-13 13:27:00,
2013-05-13 08:32:00,52.9,49.4,30.25,East,88,0.0,0.0,88,0.00,CLR,,0.00,WeatherDisplay:10.37,2013-05-13 13:32:00,
2013-05-13 08:37:00,53.4,49.6,30.25,East,88,0.0,0.0,87,0.00,CLR,,0.00,WeatherDisplay:10.37,2013-05-13 13:37:00,
2013-05-13 08:42:00,54.4,50.0,30.26,East,88,1.2,0.0,85,0.00,CLR,,0.00,WeatherDisplay:10.37,2013-05-13 13:42:00,
2013-05-13 08:47:00,55.7,50.6,30.26,East,88,0.0,0.0,83,0.00,CLR,,0.00,WeatherDisplay:10.37,2013-05-13 13:47:00,
2013-05-13 08:52:00,56.7,51.3,30.26,NE,48,0.0,0.0,82,0.00,CLR,,0.00,WeatherDisplay:10.37,2013-05-13 13:52:00,
2013-05-13 08:57:00,57.4,51.3,30.26,NE,48,0.0,0.0,80,0.00,CLR,,0.00,WeatherDisplay:10.37,2013-05-13 13:57:00,
2013-05-13 09:02:00,58.2,52.1,30.26,NE,49,1.2,1.2,80,0.00,CLR,,0.00,WeatherDisplay:10.37,2013-05-13 14:02:00,
2013-05-13 09:07:00,59.0,52.5,30.27,NE,48,0.0,0.0,79,0.00,CLR,,0.00,WeatherDisplay:10.37,2013-05-13 14:07:00,
2013-05-13 09:12:00,60.2,52.6,30.27,NE,48,1.2,0.0,76,0.00,CLR,,0.00,WeatherDisplay:10.37,2013-05-13 14:12:00,
2013-05-13 09:17:00,61.4,52.7,30.27,SE,140,1.2,0.0,73,0.00,CLR,,0.00,WeatherDisplay:10.37,2013-05-13 14:17:00,
2013-05-13 09:22:00,62.6,50.2,30.27,SSW,194,1.2,1.2,64,0.00,CLR,,0.00,WeatherDisplay:10.37,2013-05-13 14:22:00,
2013-05-13 09:27:00,63.6,49.5,30.27,SSW,198,1.2,0.0,60,0.00,CLR,,0.00,WeatherDisplay:10.37,2013-05-13 14:27:00,
2013-05-13 09:32:00,64.3,51.0,30.26,WNW,284,1.2,1.2,62,0.00,CLR,,0.00,WeatherDisplay:10.37,2013-05-13 14:32:00,
2013-05-13 09:37:00,65.1,50.9,30.26,ESE,103,2.0,2.0,60,0.00,CLR,,0.00,WeatherDisplay:10.37,2013-05-13 14:37:00,
2013-05-13 09:42:00,65.6,48.5,30.26,South,171,1.2,1.2,54,0.00,CLR,,0.00,WeatherDisplay:10.37,2013-05-13 14:42:00,
2013-05-13 09:47:00,66.1,50.4,30.26,West,280,4.6,4.6,57,0.00,CLR,,0.00,WeatherDisplay:10.37,2013-05-13 14:47:00,
2013-05-13 09:52:00,66.7,48.5,30.26,WNW,300,4.6,4.6,52,0.00,CLR,,0.00,WeatherDisplay:10.37,2013-05-13 14:52:00,
2013-05-13 09:57:00,67.2,49.0,30.27,WSW,254,5.8,5.8,52,0.00,CLR,,0.00,WeatherDisplay:10.37,2013-05-13 14:57:00,
2013-05-13 10:02:00,67.4,48.6,30.27,NNW,338,5.8,5.8,51,0.00,CLR,,0.00,WeatherDisplay:10.37,2013-05-13 15:02:00,
2013-05-13 10:07:00,67.5,47.7,30.27,South,189,3.5,3.5,49,0.00,CLR,,0.00,WeatherDisplay:10.37,2013-05-13 15:07:00,
2013-05-13 10:12:00,67.6,48.3,30.27,SW,228,4.6,4.6,50,0.00,CLR,,0.00,WeatherDisplay:10.37,2013-05-13 15:12:00,
2013-05-13 10:17:00,67.9,48.6,30.27,WNW,285,1.2,1.2,50,0.00,CLR,,0.00,WeatherDisplay:10.37,2013-05-13 15:17:00,
2013-05-13 10:22:00,68.0,47.0,30.27,SSW,209,3.5,3.5,47,0.00,CLR,,0.00,WeatherDisplay:10.37,2013-05-13 15:22:00,
2013-05-13 10:27:00,68.3,48.9,30.26,WNW,300,2.3,2.3,50,0.00,CLR,,0.00,WeatherDisplay:10.37,2013-05-13 15:27:00,
2013-05-13 10:32:00,68.9,49.5,30.26,NNW,330,4.0,4.0,50,0.00,CLR,,0.00,WeatherDisplay:10.37,2013-05-13 15:32:00,
2013-05-13 10:37:00,69.5,50.0,30.26,WSW,252,2.3,2.3,50,0.00,CLR,,0.00,WeatherDisplay:10.37,2013-05-13 15:37:00,
2013-05-13 10:42:00,70.1,49.5,30.26,SSW,209,2.3,2.3,48,0.00,CLR,,0.00,WeatherDisplay:10.37,2013-05-13 15:42:00,
2013-05-13 10:47:00,70.1,47.2,30.26,SE,132,1.2,1.2,44,0.00,CLR,,0.00,WeatherDisplay:10.37,2013-05-13 15:47:00,
2013-05-13 10:52:00,70.0,48.3,30.26,SE,136,2.3,0.0,46,0.00,CLR,,0.00,WeatherDisplay:10.37,2013-05-13 15:52:00,
2013-05-13 10:57:00,70.2,50.1,30.27,SE,132,1.2,0.0,49,0.00,CLR,,0.00,WeatherDisplay:10.37,2013-05-13 15:57:00,
2013-05-13 11:02:00,70.8,52.8,30.27,NNW,348,0.0,0.1,53,0.00,CLR,,0.00,WeatherDisplay:10.37,2013-05-13 16:02:00,
2013-05-13 11:07:00,71.7,51.5,30.26,SW,215,2.0,2.0,49,0.00,CLR,,0.00,WeatherDisplay:10.37,2013-05-13 16:07:00,
2013-05-13 11:12:00,72.2,48.5,30.26,ESE,113,3.5,3.5,43,0.00,CLR,,0.00,WeatherDisplay:10.37,2013-05-13 16:12:00,
2013-05-13 11:17:00,72.1,48.4,30.26,NW,306,3.5,3.5,43,0.00,CLR,,0.00,WeatherDisplay:10.37,2013-05-13 16:17:00,
2013-05-13 11:22:00,72.0,47.6,30.26,West,275,1.2,1.2,42,0.00,CLR,,0.00,WeatherDisplay:10.37,2013-05-13 16:22:00,
2013-05-13 11:27:00,72.2,50.8,30.26,WNW,288,2.3,2.3,47,0.00,CLR,,0.00,WeatherDisplay:10.37,2013-05-13 16:27:00,
2013-05-13 11:32:00,72.5,52.2,30.26,SSW,204,3.5,3.5,49,0.00,CLR,,0.00,WeatherDisplay:10.37,2013-05-13 16:32:00,
2013-05-13 11:37:00,71.9,48.2,30.26,East,98,2.3,2.3,43,0.00,CLR,,0.00,WeatherDisplay:10.37,2013-05-13 16:37:00,
2013-05-13 11:42:00,72.0,51.8,30.26,NNE,28,1.2,1.2,49,0.00,CLR,,0.00,WeatherDisplay:10.37,2013-05-13 16:42:00,
2013-05-13 11:47:00,72.1,49.6,30.26,East,84,1.2,0.0,45,0.00,CLR,,0.00,WeatherDisplay:10.37,2013-05-13 16:47:00,
2013-05-13 11:52:00,71.9,51.1,30.25,SSE,166,1.2,1.2,48,0.00,CLR,,0.00,WeatherDisplay:10.37,2013-05-13 16:52:00,
2013-05-13 11:57:00,72.3,49.8,30.25,WNW,291,3.5,3.5,45,0.00,CLR,,0.00,WeatherDisplay:10.37,2013-05-13 16:57:00,
2013-05-13 12:02:00,72.9,52.6,30.25,NNW,327,2.3,2.3,49,0.00,CLR,,0.00,WeatherDisplay:10.37,2013-05-13 17:02:00,
2013-05-13 12:07:00,73.4,50.8,30.25,NW,316,5.0,5.0,45,0.00,CLR,,0.00,WeatherDisplay:10.37,2013-05-13 17:07:00,
2013-05-13 12:12:00,73.7,47.9,30.24,NNW,338,5.8,0.0,40,0.00,CLR,,0.00,WeatherDisplay:10.37,2013-05-13 17:12:00,
2013-05-13 12:17:00,73.9,50.6,30.24,NNW,331,1.2,1.2,44,0.00,CLR,,0.00,WeatherDisplay:10.37,2013-05-13 17:17:00,
2013-05-13 12:22:00,74.3,48.4,30.23,NW,322,1.2,0.0,40,0.00,CLR,,0.00,WeatherDisplay:10.37,2013-05-13 17:22:00,
2013-05-13 12:27:00,74.8,48.2,30.23,East,99,1.2,1.2,39,0.00,CLR,,0.00,WeatherDisplay:10.37,2013-05-13 17:27:00,
2013-05-13 12:32:00,74.4,47.8,30.23,ESE,105,3.5,3.5,39,0.00,CLR,,0.00,WeatherDisplay:10.37,2013-05-13 17:32:00,
2013-05-13 12:37:00,73.9,46.7,30.23,South,190,3.5,3.5,38,0.00,CLR,,0.00,WeatherDisplay:10.37,2013-05-13 17:37:00,
2013-05-13 12:42:00,73.9,50.6,30.22,SE,127,3.5,3.5,44,0.00,CLR,,0.00,WeatherDisplay:10.37,2013-05-13 17:42:00,
2013-05-13 12:47:00,74.5,48.6,30.22,NW,306,3.5,3.5,40,0.00,CLR,,0.00,WeatherDisplay:10.37,2013-05-13 17:47:00,
2013-05-13 12:52:00,75.1,49.8,30.22,West,275,3.5,3.5,41,0.00,CLR,,0.00,WeatherDisplay:10.37,2013-05-13 17:52:00,
2013-05-13 12:57:00,75.5,48.8,30.22,SW,215,3.5,3.5,39,0.00,CLR,,0.00,WeatherDisplay:10.37,2013-05-13 17:57:00,
2013-05-13 13:02:00,75.7,49.7,30.22,NNW,348,2.3,2.3,40,0.00,CLR,,0.00,WeatherDisplay:10.37,2013-05-13 18:02:00,
2013-05-13 13:07:00,76.0,49.9,30.21,NNW,333,0.0,0.1,40,0.00,CLR,,0.00,WeatherDisplay:10.37,2013-05-13 18:07:00,
2013-05-13 13:12:00,76.0,48.6,30.21,SSW,195,1.2,1.2,38,0.00,CLR,,0.00,WeatherDisplay:10.37,2013-05-13 18:12:00,
2013-05-13 13:17:00,75.2,47.1,30.21,ESE,117,3.5,3.8,37,0.00,CLR,,0.00,WeatherDisplay:10.37,2013-05-13 18:17:00,
2013-05-13 13:22:00,74.1,47.6,30.21,East,92,4.6,4.6,39,0.00,CLR,,0.00,WeatherDisplay:10.37,2013-05-13 18:22:00,
2013-05-13 13:27:00,74.0,48.1,30.21,East,79,3.5,3.5,40,0.00,CLR,,0.00,WeatherDisplay:10.37,2013-05-13 18:27:00,
2013-05-13 13:32:00,74.5,52.4,30.21,East,96,6.0,6.0,46,0.00,CLR,,0.00,WeatherDisplay:10.37,2013-05-13 18:32:00,
2013-05-13 13:37:00,74.6,48.7,30.21,NW,325,5.8,5.8,40,0.00,CLR,,0.00,WeatherDisplay:10.37,2013-05-13 18:37:00,
2013-05-13 13:42:00,74.9,48.9,30.20,South,190,3.5,3.5,40,0.00,CLR,,0.00,WeatherDisplay:10.37,2013-05-13 18:42:00,
2013-05-13 13:47:00,75.1,51.1,30.20,NNW,336,3.5,3.6,43,0.00,CLR,,0.00,WeatherDisplay:10.37,2013-05-13 18:47:00,
2013-05-13 13:52:00,75.5,51.4,30.20,SSW,198,4.6,4.6,43,0.00,CLR,,0.00,WeatherDisplay:10.37,2013-05-13 18:52:00,
2013-05-13 13:57:00,75.4,49.4,30.20,SSE,168,3.5,3.5,40,0.00,CLR,,0.00,WeatherDisplay:10.37,2013-05-13 18:57:00,
2013-05-13 14:02:00,75.8,50.4,30.20,NW,306,4.6,4.6,41,0.00,CLR,,0.00,WeatherDisplay:10.37,2013-05-13 19:02:00,
2013-05-13 14:07:00,76.6,51.1,30.20,NNW,327,1.2,1.2,41,0.00,CLR,,0.00,WeatherDisplay:10.37,2013-05-13 19:07:00,
2013-05-13 14:12:00,76.3,48.1,30.20,East,84,3.5,3.5,37,0.00,CLR,,0.00,WeatherDisplay:10.37,2013-05-13 19:12:00,
2013-05-13 14:17:00,75.0,48.4,30.20,East,92,4.6,4.6,39,0.00,CLR,,0.00,WeatherDisplay:10.37,2013-05-13 19:17:00,
2013-05-13 14:22:00,74.6,48.7,30.20,East,101,1.2,1.2,40,0.00,CLR,,0.00,WeatherDisplay:10.37,2013-05-13 19:22:00,
2013-05-13 14:27:00,74.5,47.2,30.19,East,94,2.3,2.3,38,0.00,CLR,,0.00,WeatherDisplay:10.37,2013-05-13 19:27:00,
2013-05-13 14:32:00,74.0,48.8,30.19,East,98,1.2,0.0,41,0.00,CLR,,0.00,WeatherDisplay:10.37,2013-05-13 19:32:00,
2013-05-13 14:37:00,74.0,50.1,30.19,SW,227,3.5,3.5,43,0.00,CLR,,0.00,WeatherDisplay:10.37,2013-05-13 19:37:00,
2013-05-13 14:42:00,74.1,50.8,30.19,WNW,300,3.5,3.5,44,0.00,CLR,,0.00,WeatherDisplay:10.37,2013-05-13 19:42:00,
2013-05-13 14:47:00,74.3,50.4,30.19,SSW,210,3.0,3.0,43,0.00,CLR,,0.00,WeatherDisplay:10.37,2013-05-13 19:47:00,
2013-05-13 14:52:00,74.4,48.5,30.19,SSE,168,1.2,1.2,40,0.00,CLR,,0.00,WeatherDisplay:10.37,2013-05-13 19:52:00,
2013-05-13 14:57:00,74.5,51.8,30.18,SSE,168,2.3,2.3,45,0.00,CLR,,0.00,WeatherDisplay:10.37,2013-05-13 19:57:00,
2013-05-13 15:02:00,74.5,48.6,30.18,SSW,196,3.5,3.5,40,0.00,CLR,,0.00,WeatherDisplay:10.37,2013-05-13 20:02:00,
2013-05-13 15:07:00,74.6,50.6,30.18,SSW,194,1.2,1.2,43,0.00,CLR,,0.00,WeatherDisplay:10.37,2013-05-13 20:07:00,
2013-05-13 15:12:00,74.5,48.6,30.18,East,84,4.6,4.6,40,0.00,CLR,,0.00,WeatherDisplay:10.37,2013-05-13 20:12:00,
2013-05-13 15:18:00,74.1,50.2,30.18,South,175,3.5,3.5,43,0.00,CLR,,0.00,WeatherDisplay:10.37,2013-05-13 20:18:00,
2013-05-13 15:23:00,74.3,49.1,30.17,East,98,4.6,4.6,41,0.00,CLR,,0.00,WeatherDisplay:10.37,2013-05-13 20:23:00,
2013-05-13 15:28:00,75.1,50.4,30.17,East,96,3.0,3.0,42,0.00,CLR,,0.00,WeatherDisplay:10.37,2013-05-13 20:28:00,
2013-05-13 15:33:00,75.3,50.0,30.17,East,89,1.2,1.2,41,0.00,CLR,,0.00,WeatherDisplay:10.37,2013-05-13 20:33:00,
2013-05-13 15:38:00,75.7,51.0,30.16,ENE,77,6.9,6.9,42,0.00,CLR,,0.00,WeatherDisplay:10.37,2013-05-13 20:38:00,
2013-05-13 15:43:00,75.8,49.8,30.16,SW,235,6.9,6.9,40,0.00,CLR,,0.00,WeatherDisplay:10.37,2013-05-13 20:43:00,
2013-05-13 15:48:00,76.4,52.2,30.16,East,88,3.5,3.5,43,0.00,CLR,,0.00,WeatherDisplay:10.37,2013-05-13 20:48:00,
2013-05-13 15:53:00,76.8,52.0,30.16,East,86,3.5,3.5,42,0.00,CLR,,0.00,WeatherDisplay:10.37,2013-05-13 20:53:00,
2013-05-13 15:58:00,77.2,51.0,30.16,East,91,4.6,4.6,40,0.00,CLR,,0.00,WeatherDisplay:10.37,2013-05-13 20:58:00,
2013-05-13 16:03:00,76.9,50.7,30.16,NNW,329,3.5,3.5,40,0.00,CLR,,0.00,WeatherDisplay:10.37,2013-05-13 21:03:00,
2013-05-13 16:08:00,77.6,53.3,30.16,SSW,211,3.5,3.5,43,0.00,CLR,,0.00,WeatherDisplay:10.37,2013-05-13 21:08:00,
2013-05-13 16:13:00,78.5,52.8,30.15,West,264,3.5,3.5,41,0.00,CLR,,0.00,WeatherDisplay:10.37,2013-05-13 21:13:00,
2013-05-13 16:18:00,78.0,51.7,30.15,SSW,208,4.6,4.6,40,0.00,CLR,,0.00,WeatherDisplay:10.37,2013-05-13 21:18:00,
2013-05-13 16:23:00,77.1,50.9,30.15,East,96,6.9,6.9,40,0.00,CLR,,0.00,WeatherDisplay:10.37,2013-05-13 21:23:00,
2013-05-13 16:28:00,76.6,51.1,30.14,SW,229,3.5,3.5,41,0.00,CLR,,0.00,WeatherDisplay:10.37,2013-05-13 21:28:00,
2013-05-13 16:33:00,76.2,51.4,30.14,East,92,3.5,3.5,42,0.00,CLR,,0.00,WeatherDisplay:10.37,2013-05-13 21:33:00,
2013-05-13 16:38:00,76.6,51.1,30.14,SSW,204,2.3,2.3,41,0.00,CLR,,0.00,WeatherDisplay:10.37,2013-05-13 21:38:00,
2013-05-13 16:43:00,76.8,52.0,30.14,SW,223,4.6,4.6,42,0.00,CLR,,0.00,WeatherDisplay:10.37,2013-05-13 21:43:00,
2013-05-13 16:48:00,77.3,53.1,30.13,WNW,303,3.5,3.5,43,0.00,CLR,,0.00,WeatherDisplay:10.37,2013-05-13 21:48:00,
2013-05-13 16:53:00,76.8,51.3,30.13,SSE,159,9.2,9.2,41,0.00,CLR,,0.00,WeatherDisplay:10.37,2013-05-13 21:53:00,
2013-05-13 16:58:00,76.2,52.7,30.13,NW,305,4.6,4.6,44,0.00,CLR,,0.00,WeatherDisplay:10.37,2013-05-13 21:58:00,
2013-05-13 17:03:00,76.5,52.3,30.13,SSW,205,4.6,4.6,43,0.00,CLR,,0.00,WeatherDisplay:10.37,2013-05-13 22:03:00,
2013-05-13 17:08:00,76.7,52.5,30.12,ENE,78,2.3,2.3,43,0.00,CLR,,0.00,WeatherDisplay:10.37,2013-05-13 22:08:00,
2013-05-13 17:13:00,77.0,51.5,30.12,SE,128,3.5,3.5,41,0.00,CLR,,0.00,WeatherDisplay:10.37,2013-05-13 22:13:00,
2013-05-13 17:18:00,77.2,52.3,30.12,SSW,195,3.5,3.5,42,0.00,CLR,,0.00,WeatherDisplay:10.37,2013-05-13 22:18:00,
2013-05-13 17:23:00,76.9,52.7,30.12,ENE,60,3.5,3.5,43,0.00,CLR,,0.00,WeatherDisplay:10.37,2013-05-13 22:23:00,
2013-05-13 17:28:00,77.1,52.2,30.12,ESE,110,5.8,5.8,42,0.00,CLR,,0.00,WeatherDisplay:10.37,2013-05-13 22:28:00,
2013-05-13 17:33:00,76.6,53.1,30.12,ENE,69,2.3,0.0,44,0.00,CLR,,0.00,WeatherDisplay:10.37,2013-05-13 22:33:00,
2013-05-13 17:38:00,76.3,52.2,30.12,SSW,199,6.9,6.9,43,0.00,CLR,,0.00,WeatherDisplay:10.37,2013-05-13 22:38:00,
2013-05-13 17:43:00,76.4,53.5,30.12,West,272,3.5,3.5,45,0.00,CLR,,0.00,WeatherDisplay:10.37,2013-05-13 22:43:00,
2013-05-13 17:48:00,76.8,53.2,30.12,SSW,205,3.5,3.5,44,0.00,CLR,,0.00,WeatherDisplay:10.37,2013-05-13 22:48:00,
2013-05-13 17:53:00,76.9,53.3,30.12,SSW,209,4.0,4.0,44,0.00,CLR,,0.00,WeatherDisplay:10.37,2013-05-13 22:53:00,
2013-05-13 17:58:00,76.8,53.2,30.12,SW,225,4.6,4.6,44,0.00,CLR,,0.00,WeatherDisplay:10.37,2013-05-13 22:58:00,
2013-05-13 18:03:00,76.7,53.1,30.12,SW,220,3.5,3.5,44,0.00,CLR,,0.00,WeatherDisplay:10.37,2013-05-13 23:03:00,
2013-05-13 18:08:00,76.7,51.9,30.12,SW,233,6.0,6.0,42,0.00,CLR,,0.00,WeatherDisplay:10.37,2013-05-13 23:08:00,
2013-05-13 18:13:00,76.6,52.4,30.12,SSW,198,3.5,3.5,43,0.00,CLR,,0.00,WeatherDisplay:10.37,2013-05-13 23:13:00,
2013-05-13 18:18:00,76.4,52.9,30.12,East,86,2.3,2.3,44,0.00,CLR,,0.00,WeatherDisplay:10.37,2013-05-13 23:18:00,
2013-05-13 18:23:00,76.4,53.5,30.13,SW,215,2.3,2.3,45,0.00,CLR,,0.00,WeatherDisplay:10.37,2013-05-13 23:23:00,
2013-05-13 18:28:00,76.2,53.3,30.13,East,79,1.2,1.2,45,0.00,CLR,,0.00,WeatherDisplay:10.37,2013-05-13 23:28:00,
2013-05-13 18:33:00,76.2,53.3,30.13,East,96,4.0,4.0,45,0.00,CLR,,0.00,WeatherDisplay:10.37,2013-05-13 23:33:00,
2013-05-13 18:38:00,76.0,53.1,30.13,East,92,3.5,3.5,45,0.00,CLR,,0.00,WeatherDisplay:10.37,2013-05-13 23:38:00,
2013-05-13 18:43:00,76.0,53.7,30.12,East,91,1.2,1.2,46,0.00,CLR,,0.00,WeatherDisplay:10.37,2013-05-13 23:43:00,
2013-05-13 18:48:00,75.8,54.1,30.12,SSW,211,1.2,1.2,47,0.00,CLR,,0.00,WeatherDisplay:10.37,2013-05-13 23:48:00,
2013-05-13 18:53:00,75.8,54.7,30.12,SSW,211,1.2,0.0,48,0.00,CLR,,0.00,WeatherDisplay:10.37,2013-05-13 23:53:00,
2013-05-13 18:58:00,75.6,53.9,30.12,SSW,211,3.5,3.5,47,0.00,CLR,,0.00,WeatherDisplay:10.37,2013-05-13 23:58:00,
2013-05-13 19:03:00,75.4,52.6,30.12,SSW,212,2.3,2.3,45,0.00,CLR,,0.00,WeatherDisplay:10.37,2013-05-14 00:03:00,
2013-05-13 19:08:00,75.1,53.5,30.12,SSW,200,3.5,3.5,47,0.00,CLR,,0.00,WeatherDisplay:10.37,2013-05-14 00:08:00,
2013-05-13 19:13:00,74.8,52.6,30.12,SSW,198,3.5,3.5,46,0.00,CLR,,0.00,WeatherDisplay:10.37,2013-05-14 00:13:00,
2013-05-13 19:18:00,74.5,52.9,30.12,SSW,198,0.0,0.0,47,0.00,CLR,,0.00,WeatherDisplay:10.37,2013-05-14 00:18:00,
2013-05-13 19:23:00,74.3,52.8,30.12,SSE,148,1.2,1.2,47,0.00,CLR,,0.00,WeatherDisplay:10.37,2013-05-14 00:23:00,
2013-05-13 19:28:00,74.3,52.8,30.12,East,99,1.2,1.2,47,0.00,CLR,,0.00,WeatherDisplay:10.37,2013-05-14 00:28:00,
2013-05-13 19:33:00,74.3,52.8,30.12,ENE,74,0.0,0.0,47,0.00,CLR,,0.00,WeatherDisplay:10.37,2013-05-14 00:33:00,
2013-05-13 19:38:00,74.1,53.2,30.12,SW,215,3.5,3.5,48,0.00,CLR,,0.00,WeatherDisplay:10.37,2013-05-14 00:38:00,
2013-05-13 19:43:00,73.7,53.9,30.12,SSW,213,0.0,0.0,50,0.00,CLR,,0.00,WeatherDisplay:10.37,2013-05-14 00:43:00,
2013-05-13 19:48:00,73.2,53.4,30.12,SSW,210,0.0,0.0,50,0.00,CLR,,0.00,WeatherDisplay:10.37,2013-05-14 00:48:00,
2013-05-13 19:53:00,72.9,53.7,30.12,SSW,211,0.0,0.0,51,0.00,CLR,,0.00,WeatherDisplay:10.37,2013-05-14 00:53:00,
2013-05-13 19:58:00,72.5,54.4,30.12,SSW,211,0.0,0.0,53,0.00,CLR,,0.00,WeatherDisplay:10.37,2013-05-14 00:58:00,
2013-05-13 20:03:00,72.0,55.4,30.12,SSW,210,0.0,0.0,56,0.00,CLR,,0.00,WeatherDisplay:10.37,2013-05-14 01:03:00,
2013-05-13 20:08:00,71.3,55.3,30.13,SSW,211,0.0,0.0,57,0.00,CLR,,0.00,WeatherDisplay:10.37,2013-05-14 01:08:00,
2013-05-13 20:13:00,70.6,56.0,30.12,SSW,210,0.0,0.0,60,0.00,CLR,,0.00,WeatherDisplay:10.37,2013-05-14 01:13:00,
2013-05-13 20:18:00,69.9,57.2,30.13,SSW,210,0.0,0.0,64,0.00,CLR,,0.00,WeatherDisplay:10.37,2013-05-14 01:18:00,
2013-05-13 20:23:00,69.1,56.0,30.13,SSW,210,0.0,0.0,63,0.00,CLR,,0.00,WeatherDisplay:10.37,2013-05-14 01:23:00,
2013-05-13 20:28:00,68.3,55.2,30.13,SSW,210,0.0,0.0,63,0.00,CLR,,0.00,WeatherDisplay:10.37,2013-05-14 01:28:00,
2013-05-13 20:33:00,67.6,55.0,30.13,SSW,210,0.0,0.0,64,0.00,CLR,,0.00,WeatherDisplay:10.37,2013-05-14 01:33:00,
2013-05-13 20:38:00,66.8,55.1,30.13,SSW,210,0.0,0.0,66,0.00,CLR,,0.00,WeatherDisplay:10.37,2013-05-14 01:38:00,
2013-05-13 20:43:00,66.3,56.2,30.13,SSW,210,0.0,0.0,70,0.00,CLR,,0.00,WeatherDisplay:10.37,2013-05-14 01:43:00,
2013-05-13 20:48:00,65.8,56.5,30.13,SSW,210,0.0,0.0,72,0.00,CLR,,0.00,WeatherDisplay:10.37,2013-05-14 01:48:00,
2013-05-13 20:53:00,65.4,56.1,30.13,SSW,211,0.0,0.0,72,0.00,CLR,,0.00,WeatherDisplay:10.37,2013-05-14 01:53:00,
2013-05-13 20:58:00,65.0,55.8,30.13,SSW,211,0.0,0.0,72,0.00,CLR,,0.00,WeatherDisplay:10.37,2013-05-14 01:58:00,
2013-05-13 21:03:00,64.5,55.3,30.13,SSW,210,0.0,0.0,72,0.00,CLR,,0.00,WeatherDisplay:10.37,2013-05-14 02:03:00,
2013-05-13 21:08:00,64.0,55.5,30.13,SSW,210,0.0,0.0,74,0.00,CLR,,0.00,WeatherDisplay:10.37,2013-05-14 02:08:00,
2013-05-13 21:13:00,63.7,56.0,30.13,SSW,210,0.0,0.0,76,0.00,CLR,,0.00,WeatherDisplay:10.37,2013-05-14 02:13:00,
2013-05-13 21:18:00,63.3,56.0,30.13,SSW,210,0.0,0.0,77,0.00,CLR,,0.00,WeatherDisplay:10.37,2013-05-14 02:18:00,
2013-05-13 21:23:00,62.9,55.6,30.13,SSW,210,0.0,0.0,77,0.00,CLR,,0.00,WeatherDisplay:10.37,2013-05-14 02:23:00,
2013-05-13 21:28:00,62.6,55.3,30.14,SSW,210,0.0,0.0,77,0.00,CLR,,0.00,WeatherDisplay:10.37,2013-05-14 02:28:00,
2013-05-13 21:33:00,62.5,55.2,30.14,South,186,0.0,0.0,77,0.00,CLR,,0.00,WeatherDisplay:10.37,2013-05-14 02:33:00,
2013-05-13 21:38:00,62.6,55.3,30.14,South,186,0.0,0.0,77,0.00,CLR,,0.00,WeatherDisplay:10.37,2013-05-14 02:38:00,
2013-05-13 21:43:00,62.6,55.6,30.14,South,186,0.0,0.0,78,0.00,CLR,,0.00,WeatherDisplay:10.37,2013-05-14 02:43:00,
2013-05-13 21:48:00,62.4,55.4,30.14,South,186,0.0,0.0,78,0.00,CLR,,0.00,WeatherDisplay:10.37,2013-05-14 02:48:00,
2013-05-13 21:53:00,62.0,55.1,30.14,South,186,0.0,0.0,78,0.00,CLR,,0.00,WeatherDisplay:10.37,2013-05-14 02:53:00,
2013-05-13 21:58:00,61.9,55.0,30.14,South,186,0.0,0.0,78,0.00,CLR,,0.00,WeatherDisplay:10.37,2013-05-14 02:58:00,
2013-05-13 22:03:00,62.1,54.4,30.14,South,186,1.2,0.0,76,0.00,CLR,,0.00,WeatherDisplay:10.37,2013-05-14 03:03:00,
2013-05-13 22:08:00,62.5,54.5,30.14,SSE,168,0.0,0.0,75,0.00,CLR,,0.00,WeatherDisplay:10.37,2013-05-14 03:08:00,
2013-05-13 22:13:00,63.4,54.6,30.14,SSE,150,0.0,0.0,73,0.00,CLR,,0.00,WeatherDisplay:10.37,2013-05-14 03:13:00,
2013-05-13 22:18:00,63.9,54.7,30.14,SSE,150,0.0,0.0,72,0.00,CLR,,0.00,WeatherDisplay:10.37,2013-05-14 03:18:00,
2013-05-13 22:23:00,64.0,55.2,30.14,SSE,149,0.0,0.0,73,0.00,CLR,,0.00,WeatherDisplay:10.37,2013-05-14 03:23:00,
2013-05-13 22:28:00,63.9,55.1,30.14,SSE,150,0.0,0.0,73,0.00,CLR,,0.00,WeatherDisplay:10.37,2013-05-14 03:28:00,
2013-05-13 22:33:00,63.4,55.3,30.14,SSE,150,0.0,0.0,75,0.00,CLR,,0.00,WeatherDisplay:10.37,2013-05-14 03:33:00,
2013-05-13 22:38:00,62.8,55.1,30.14,SSE,150,0.0,0.0,76,0.00,CLR,,0.00,WeatherDisplay:10.37,2013-05-14 03:38:00,
2013-05-13 22:43:00,62.4,54.7,30.13,SSE,150,0.0,0.0,76,0.00,CLR,,0.00,WeatherDisplay:10.37,2013-05-14 03:43:00,
2013-05-13 22:48:00,62.6,54.6,30.13,SE,128,1.0,0.0,75,0.00,CLR,,0.00,WeatherDisplay:10.37,2013-05-14 03:48:00,
2013-05-13 22:53:00,63.0,54.2,30.13,SE,128,0.0,0.0,73,0.00,CLR,,0.00,WeatherDisplay:10.37,2013-05-14 03:53:00,
2013-05-13 22:58:00,63.2,54.0,30.13,SE,128,1.2,0.0,72,0.00,CLR,,0.00,WeatherDisplay:10.37,2013-05-14 03:58:00,
2013-05-13 23:01:00,63.3,54.1,30.13,ESE,108,0.0,0.0,72,0.00,CLR,,0.00,WeatherDisplay:10.37,2013-05-14 04:01:00,
2013-05-13 23:06:00,63.6,54.0,30.13,East,91,2.3,0.0,71,0.00,CLR,,0.00,WeatherDisplay:10.37,2013-05-14 04:06:00,
2013-05-13 23:11:00,63.7,53.7,30.13,East,92,1.2,0.0,70,0.00,CLR,,0.00,WeatherDisplay:10.37,2013-05-14 04:11:00,
2013-05-13 23:16:00,63.7,53.7,30.12,East,92,0.0,0.0,70,0.00,CLR,,0.00,WeatherDisplay:10.37,2013-05-14 04:16:00,
2013-05-13 23:21:00,63.7,53.7,30.12,East,91,1.2,1.2,70,0.00,CLR,,0.00,WeatherDisplay:10.37,2013-05-14 04:21:00,
2013-05-13 23:26:00,63.7,53.3,30.12,East,96,2.3,2.3,69,0.00,CLR,,0.00,WeatherDisplay:10.37,2013-05-14 04:26:00,
2013-05-13 23:31:00,63.7,53.3,30.12,East,95,0.0,0.0,69,0.00,CLR,,0.00,WeatherDisplay:10.37,2013-05-14 04:31:00,
2013-05-13 23:36:00,63.7,53.3,30.12,East,93,1.2,0.0,69,0.00,CLR,,0.00,WeatherDisplay:10.37,2013-05-14 04:36:00,
2013-05-13 23:41:00,63.8,53.0,30.12,East,92,1.2,1.2,68,0.00,CLR,,0.00,WeatherDisplay:10.37,2013-05-14 04:41:00,
2013-05-13 23:46:00,64.1,53.3,30.12,East,92,0.0,0.1,68,0.00,CLR,,0.00,WeatherDisplay:10.37,2013-05-14 04:46:00,
2013-05-13 23:51:00,64.2,53.0,30.12,East,92,0.0,0.0,67,0.00,CLR,,0.00,WeatherDisplay:10.37,2013-05-14 04:51:00,
2013-05-13 23:56:00,64.1,52.9,30.12,East,92,0.0,0.0,67,0.00,CLR,,0.00,WeatherDisplay:10.37,2013-05-14 04:56:00,